Location: Freistadt
(48.5112°N, 14.5013°E)
Time: 10:28:39
(UTC+02:00)

MOZHAYETS 4 - Pass Details

Date: 05 April 2023
Orbit: 657 x 675 km, 98.2° (Epoch: 03 June)

Event Time Altitude Azimuth Distance (km) Brightness Sun altitude
Exits shadow 02:04:47 14° 73° (ENE) 1,845 10.3 -34.0°
Maximum altitude 02:05:51 15° 57° (ENE) 1,789 10.4 -34.0°
Drops below altitude 10° 02:08:20 10° 24° (NNE) 2,092 11.1 -33.8°
Sets 02:11:27 0° 1° (N) 3,015 12.0 -33.7°
